Weather History for KBLI - February, 2013

Change the Weather History Date:

Tuesday, February 26, 2013

  Actual Average Record
Temperature  
Mean Temperature 46 °F 42 °F  
Max Temperature 50 °F 50 °F 65 °F (1992)
Min Temperature 41 °F 34 °F 18 °F (1962)
Degree Days  
Heating Degree Days 20 23  
Month to date heating degree days 633  
Cooling Degree Days 0 0  
Month to date cooling degree days 0  
Year to date cooling degree days 0  
Moisture  
Dew Point 34 °F    
Average Humidity 62    
Maximum Humidity 80    
Minimum Humidity 48    
Precipitation  
Precipitation 0.00 in 0.10 in 0.82 in (1980)
Month to date precipitation 2.81  
Year to date precipitation 7.48  
Sea Level Pressure  
Sea Level Pressure 30.27 in    
Wind  
Wind Speed 7 mph (SE)    
Max Wind Speed 16 mph    
Max Gust Speed 25 mph    
Visibility 10 miles    
Events Rain    
T = Trace of Precipitation, MM = Missing Value Source: NWS Daily Summary

Daily Weather History Graph

Daily Weather History Graph

Search for Another Location

Airport or City:

Trip Planner

Search our weather history database for the weather conditions in past years. The results will help you decide how hot, cold, wet, or windy it might be!

Date:

Astronomy

Feb. 26, 2013 Rise Set
Actual Time 6:57 AM PST 5:49 PM PST
Civil Twilight 6:25 AM PST 6:21 PM PST
Nautical Twilight 5:48 AM PST 6:57 PM PST
Astronomical Twilight 5:12 AM PST 7:34 PM PST
Moon 7:23 PM PST (2/26) 6:53 AM PST (2/26)
Length of Visible Light 11h 55m
Length of Day
10h 52m
Full, 99% of the Moon is Illuminated
Feb 26
Full
Mar 4
Last Quarter
Mar 11
New
Mar 19
First Quarter
Mar 27
Full

Hourly Weather History & Observations

Time (PST) Temp. Windchill Dew Point Humidity Pressure Visibility Wind Dir Wind Speed Gust Speed Precip Events Conditions
12:53 AM 42.1 °F 40.2 °F 36.0 °F 79% 30.29 in 10.0 mi South 3.5 mph - N/A   Clear
1:53 AM 41.0 °F - 35.1 °F 79% 30.30 in 10.0 mi Calm Calm - N/A   Partly Cloudy
2:53 AM 42.1 °F 38.4 °F 36.0 °F 79% 30.31 in 10.0 mi SSE 5.8 mph - N/A   Scattered Clouds
3:42 AM 42.8 °F 40.1 °F 35.6 °F 76% 30.29 in 10.0 mi SE 4.6 mph - N/A   Mostly Cloudy
3:53 AM 43.0 °F 40.3 °F 37.0 °F 80% 30.32 in 10.0 mi SE 4.6 mph - N/A   Overcast
4:40 AM 44.6 °F 40.7 °F 35.6 °F 71% 30.30 in 10.0 mi SSE 6.9 mph - N/A   Mostly Cloudy
4:53 AM 44.1 °F 40.1 °F 36.0 °F 73% 30.32 in 10.0 mi SSE 6.9 mph - N/A   Overcast
5:53 AM 45.0 °F 39.7 °F 35.1 °F 68% 30.33 in 10.0 mi SSE 10.4 mph - N/A   Overcast
6:53 AM 44.1 °F 40.8 °F 34.0 °F 68% 30.33 in 10.0 mi SSE 5.8 mph - N/A   Mostly Cloudy
7:53 AM 45.0 °F 40.6 °F 34.0 °F 65% 30.34 in 10.0 mi South 8.1 mph - N/A   Overcast
8:53 AM 46.0 °F 41.4 °F 34.0 °F 63% 30.34 in 10.0 mi SSE 9.2 mph - N/A   Overcast
9:53 AM 48.0 °F - 34.0 °F 58% 30.33 in 10.0 mi SSE 16.1 mph 20.7 mph N/A   Partly Cloudy
10:53 AM 50.0 °F - 34.0 °F 54% 30.32 in 10.0 mi SSE 12.7 mph - N/A   Scattered Clouds
11:53 AM 50.0 °F - 35.1 °F 57% 30.30 in 10.0 mi SE 10.4 mph - N/A   Overcast
12:53 PM 50.0 °F - 33.1 °F 52% 30.28 in 10.0 mi SE 11.5 mph - N/A   Overcast
1:53 PM 50.0 °F - 30.9 °F 48% 30.27 in 10.0 mi SE 10.4 mph - N/A   Overcast
2:53 PM 50.0 °F - 30.9 °F 48% 30.26 in 10.0 mi SE 8.1 mph - N/A   Overcast
3:53 PM 50.0 °F - 32.0 °F 50% 30.24 in 10.0 mi SE 9.2 mph - N/A   Overcast
4:53 PM 48.9 °F - 33.1 °F 54% 30.22 in 10.0 mi ESE 10.4 mph - N/A   Overcast
5:53 PM 48.9 °F - 32.0 °F 52% 30.21 in 10.0 mi SE 12.7 mph - N/A   Overcast
6:53 PM 46.9 °F - 35.1 °F 63% 30.20 in 10.0 mi East 9.2 mph 25.3 mph 0.00 in Rain Light Rain
7:53 PM 46.9 °F - 34.0 °F 61% 30.19 in 10.0 mi ESE 12.7 mph 20.7 mph 0.00 in   Overcast
8:53 PM 48.0 °F - 32.0 °F 54% 30.19 in 10.0 mi SSE 15.0 mph 24.2 mph N/A   Overcast
9:53 PM 48.0 °F - 32.0 °F 54% 30.17 in 10.0 mi ESE 9.2 mph - N/A   Overcast
10:53 PM 48.9 °F - 32.0 °F 52% 30.17 in 10.0 mi SE 15.0 mph 23.0 mph 0.00 in Rain Light Rain
11:53 PM 48.9 °F - 34.0 °F 56% 30.18 in 10.0 mi SSE 16.1 mph 25.3 mph 0.00 in   Overcast